| time (UTC) | temp F | wind direction | speed MPH | gust MPH | rain 1hr in | rain 24hr in | rain mn in | humidity % | barometer mb |
| 20260906004931 | 64 | 144 | 0.0 | 0.0 | 0.00 | 0.02 | 0.02 | 77 | 1018.3 |
| 20260906004436 | 64 | 144 | 0.0 | 0.0 | 0.00 | 0.02 | 0.02 | 78 | 1018.4 |
| 20260906003912 | 65 | 144 | 0.0 | 0.0 | 0.00 | 0.02 | 0.02 | 76 | 1018.4 |
| 20260906003408 | 65 | 144 | 0.0 | 0.0 | 0.00 | 0.02 | 0.02 | 77 | 1018.4 |
| 20260906002903 | 65 | 144 | 0.0 | 0.0 | 0.00 | 0.02 | 0.02 | 78 | 1018.4 |
| 20260906002403 | 65 | 144 | 0.0 | 0.0 | 0.00 | 0.02 | 0.02 | 77 | 1018.4 |
| 20260906001903 | 65 | 144 | 0.0 | 0.0 | 0.00 | 0.02 | 0.02 | 73 | 1018.5 |
| 20260906001358 | 65 | 144 | 0.0 | 0.0 | 0.00 | 0.02 | 0.02 | 68 | 1018.5 |
| 20260906000858 | 65 | 144 | 0.0 | 0.0 | 0.00 | 0.02 | 0.02 | 71 | 1018.6 |
| 20260906000359 | 65 | 144 | 0.0 | 0.0 | 0.01 | 0.02 | 0.02 | 67 | 1018.6 |
| 20260906000114 | 65 | 144 | 0.0 | 0.0 | 0.01 | 0.02 | 0.02 | 73 | 1018.7 |
| 20260905235357 | 65 | 144 | 0.0 | 0.0 | 0.01 | 0.02 | 0.02 | 76 | 1018.7 |
| 20260905234853 | 65 | 144 | 0.0 | 0.0 | 0.01 | 0.02 | 0.02 | 74 | 1018.7 |
| 20260905234354 | 65 | 144 | 0.0 | 0.0 | 0.01 | 0.02 | 0.02 | 74 | 1018.6 |
| 20260905233851 | 65 | 144 | 0.0 | 0.0 | 0.01 | 0.02 | 0.02 | 69 | 1018.7 |
| 20260905233334 | 65 | 144 | 0.0 | 0.0 | 0.01 | 0.02 | 0.02 | 71 | 1018.7 |
| 20260905232833 | 65 | 144 | 0.0 | 0.0 | 0.01 | 0.02 | 0.02 | 70 | 1018.7 |
| 20260905232329 | 65 | 144 | 0.0 | 0.0 | 0.01 | 0.02 | 0.02 | 72 | 1018.8 |
| 20260905231825 | 64 | 144 | 0.0 | 0.0 | 0.01 | 0.02 | 0.02 | 69 | 1018.9 |
| 20260905231321 | 64 | 144 | 0.0 | 0.0 | 0.01 | 0.02 | 0.02 | 66 | 1018.8 |
| 20260905231038 | 64 | 144 | 0.0 | 0.0 | 0.00 | 0.01 | 0.02 | 69 | 1018.9 |
| 20260905230321 | 63 | 144 | 0.0 | 0.0 | 0.00 | 0.01 | 0.01 | 74 | 1018.9 |
| 20260905225820 | 63 | 144 | 0.0 | 0.0 | 0.00 | 0.01 | 0.01 | 71 | 1018.9 |
| 20260905225322 | 62 | 144 | 0.0 | 0.0 | 0.00 | 0.01 | 0.01 | 75 | 1018.9 |
| 20260905224816 | 62 | 144 | 0.0 | 0.0 | 0.00 | 0.01 | 0.01 | 71 | 1019.1 |
| 20260905224319 | 62 | 144 | 0.0 | 0.0 | 0.00 | 0.01 | 0.01 | 80 | 1019.1 |
| 20260905223809 | 62 | 144 | 0.0 | 0.0 | 0.00 | 0.01 | 0.01 | 83 | 1019.2 |
| 20260905223253 | 62 | 144 | 0.0 | 0.0 | 0.00 | 0.01 | 0.01 | 84 | 1019.2 |
| 20260905223016 | 62 | 144 | 0.0 | 0.0 | 0.00 | 0.01 | 0.01 | 83 | 1019.3 |
| 20260905222516 | 62 | 144 | 0.0 | 0.0 | 0.00 | 0.01 | 0.01 | 82 | 1019.3 |
| 20260905221741 | 62 | 144 | 0.0 | 0.0 | 0.00 | 0.01 | 0.01 | 80 | 1019.3 |
| 20260905221730 | 63 | 144 | 0.0 | 0.0 | 0.00 | 0.01 | 0.01 | 80 | 1019.5 |
| 20260905220739 | 63 | 144 | 0.0 | 0.0 | 0.00 | 0.01 | 0.01 | 80 | 1019.5 |
| 20260905220458 | 63 | 144 | 0.0 | 0.0 | 0.00 | 0.01 | 0.01 | 80 | 1019.6 |
| 20260905215731 | 63 | 144 | 0.0 | 0.0 | 0.00 | 0.01 | 0.01 | 78 | 1019.6 |
| 20260905215232 | 63 | 144 | 0.0 | 0.0 | 0.00 | 0.01 | 0.01 | 75 | 1019.7 |
| 20260905214956 | 64 | 144 | 0.0 | 0.0 | 0.00 | 0.01 | 0.01 | 74 | 1019.8 |
| 20260905214233 | 64 | 144 | 0.0 | 0.0 | 0.00 | 0.01 | 0.01 | 72 | 1019.7 |
| 20260905213735 | 64 | 144 | 0.0 | 0.0 | 0.00 | 0.01 | 0.01 | 73 | 1019.8 |
| 20260905213442 | 64 | 144 | 0.0 | 0.0 | 0.00 | 0.01 | 0.01 | 73 | 1019.8 |
| 20260905212717 | 64 | 144 | 0.0 | 0.0 | 0.00 | 0.01 | 0.01 | 72 | 1019.8 |
| 20260905212212 | 64 | 144 | 0.0 | 0.0 | 0.00 | 0.01 | 0.01 | 71 | 1019.8 |
| 20260905211713 | 65 | 144 | 0.0 | 0.0 | 0.00 | 0.01 | 0.01 | 69 | 1019.9 |
| 20260905211438 | 65 | 144 | 0.0 | 1.0 | 0.00 | 0.01 | 0.01 | 68 | 1019.9 |
| 20260905210713 | 65 | 144 | 0.0 | 1.0 | 0.00 | 0.01 | 0.01 | 63 | 1019.9 |
| 20260905210216 | 65 | 144 | 0.0 | 2.0 | 0.00 | 0.01 | 0.01 | 65 | 1019.9 |
| 20260905205709 | 64 | 144 | 0.0 | 2.0 | 0.00 | 0.01 | 0.01 | 64 | 1019.9 |
| 20260905205208 | 64 | 142 | 0.0 | 3.0 | 0.00 | 0.01 | 0.01 | 64 | 1019.9 |
| 20260905204704 | 64 | 142 | 0.0 | 3.0 | 0.00 | 0.01 | 0.01 | 64 | 1019.9 |
| 20260905204204 | 64 | 142 | 0.0 | 2.0 | 0.00 | 0.01 | 0.01 | 68 | 1019.9 |
| 20260905203649 | 64 | 142 | 0.0 | 2.0 | 0.00 | 0.01 | 0.01 | 67 | 1020.1 |
| 20260905203143 | 64 | 142 | 0.0 | 2.0 | 0.00 | 0.01 | 0.01 | 69 | 1019.9 |
| 20260905202638 | 64 | 131 | 0.0 | 0.0 | 0.00 | 0.01 | 0.01 | 68 | 1020.1 |
| 20260905202134 | 64 | 131 | 0.0 | 2.0 | 0.00 | 0.01 | 0.01 | 65 | 1020.2 |
| 20260905201848 | 64 | 131 | 0.0 | 2.0 | 0.00 | 0.01 | 0.01 | 65 | 1020.2 |
| 20260905201129 | 64 | 177 | 0.0 | 2.0 | 0.00 | 0.01 | 0.01 | 67 | 1020.1 |
| 20260905201115 | 63 | 177 | 0.0 | 2.0 | 0.00 | 0.01 | 0.01 | 67 | 1020.2 |
| 20260905200125 | 63 | 264 | 0.0 | 2.0 | 0.00 | 0.01 | 0.01 | 67 | 1020.2 |
| 20260905195627 | 63 | 140 | 0.0 | 3.0 | 0.00 | 0.01 | 0.01 | 68 | 1020.2 |
| 20260905195125 | 62 | 141 | 0.0 | 3.0 | 0.00 | 0.01 | 0.01 | 70 | 1020.3 |
| 20260905194624 | 62 | 141 | 0.0 | 1.0 | 0.00 | 0.01 | 0.01 | 72 | 1020.2 |
| 20260905194115 | 62 | 141 | 0.0 | 3.0 | 0.00 | 0.01 | 0.01 | 76 | 1020.3 |
| 20260905193615 | 62 | 140 | 0.0 | 3.0 | 0.00 | 0.01 | 0.01 | 71 | 1020.3 |
| 20260905193115 | 61 | 90 | 0.0 | 2.0 | 0.00 | 0.01 | 0.01 | 75 | 1020.3 |
| 20260905192610 | 60 | 329 | 0.0 | 2.0 | 0.00 | 0.01 | 0.01 | 77 | 1020.3 |
| 20260905192105 | 60 | 329 | 0.0 | 3.0 | 0.00 | 0.01 | 0.01 | 75 | 1020.4 |
| 20260905191608 | 60 | 329 | 0.0 | 3.0 | 0.00 | 0.01 | 0.01 | 74 | 1020.4 |
| 20260905191108 | 60 | 175 | 0.0 | 2.0 | 0.00 | 0.01 | 0.01 | 75 | 1020.5 |
| 20260905190606 | 60 | 174 | 0.0 | 5.0 | 0.00 | 0.01 | 0.01 | 77 | 1020.5 |
| 20260905190106 | 59 | 173 | 0.0 | 5.0 | 0.00 | 0.01 | 0.01 | 81 | 1020.5 |
| 20260905185606 | 59 | 158 | 0.0 | 0.0 | 0.00 | 0.01 | 0.01 | 80 | 1020.6 |
| 20260905185109 | 59 | 158 | 0.0 | 1.0 | 0.00 | 0.01 | 0.01 | 80 | 1020.5 |
| 20260905184551 | 58 | 158 | 0.0 | 2.0 | 0.00 | 0.01 | 0.01 | 79 | 1020.6 |
| 20260905184310 | 58 | 158 | 0.0 | 2.0 | 0.00 | 0.01 | 0.01 | 80 | 1020.6 |
| 20260905183800 | 58 | 292 | 0.0 | 0.0 | 0.00 | 0.01 | 0.01 | 83 | 1020.6 |
| 20260905183045 | 57 | 292 | 0.0 | 0.0 | 0.00 | 0.01 | 0.01 | 83 | 1020.6 |
| 20260905182802 | 57 | 292 | 0.0 | 0.0 | 0.00 | 0.01 | 0.01 | 86 | 1020.7 |
| 20260905182043 | 56 | 292 | 0.0 | 1.0 | 0.00 | 0.01 | 0.01 | 85 | 1020.7 |
| 20260905181543 | 56 | 292 | 0.0 | 1.0 | 0.00 | 0.01 | 0.01 | 89 | 1020.7 |
| 20260905181038 | 55 | 291 | 0.0 | 1.0 | 0.00 | 0.01 | 0.01 | 88 | 1020.7 |
| 20260905180537 | 54 | 291 | 0.0 | 0.0 | 0.00 | 0.01 | 0.01 | 86 | 1020.8 |
| 20260905180038 | 54 | 291 | 0.0 | 0.0 | 0.00 | 0.01 | 0.01 | 88 | 1020.8 |
| 20260905175538 | 54 | 291 | 0.0 | 0.0 | 0.00 | 0.01 | 0.01 | 89 | 1020.8 |
| 20260905175038 | 54 | 291 | 0.0 | 0.0 | 0.00 | 0.01 | 0.01 | 89 | 1021.1 |
| 20260905174528 | 54 | 291 | 0.0 | 0.0 | 0.00 | 0.01 | 0.01 | 89 | 1021.0 |
| 20260905174249 | 53 | 291 | 0.0 | 1.0 | 0.00 | 0.01 | 0.01 | 91 | 1021.0 |
| 20260905173522 | 53 | 291 | 0.0 | 1.0 | 0.00 | 0.01 | 0.01 | 92 | 1021.0 |
| 20260905173013 | 53 | 291 | 0.0 | 0.0 | 0.00 | 0.01 | 0.01 | 94 | 1021.0 |
| 20260905172513 | 53 | 291 | 0.0 | 3.0 | 0.00 | 0.01 | 0.01 | 96 | 1021.0 |
| 20260905172013 | 52 | 291 | 0.0 | 3.0 | 0.00 | 0.01 | 0.01 | 96 | 1021.0 |
| 20260905171731 | 52 | 293 | 0.0 | 1.0 | 0.00 | 0.01 | 0.01 | 97 | 1021.0 |
| 20260905171015 | 51 | 292 | 0.0 | 1.0 | 0.00 | 0.01 | 0.01 | 98 | 1021.0 |
| 20260905170511 | 51 | 293 | 0.0 | 0.0 | 0.00 | 0.01 | 0.01 | 98 | 1021.0 |
| 20260905170010 | 50 | 293 | 0.0 | 0.0 | 0.00 | 0.01 | 0.01 | 98 | 1021.0 |
| 20260905165509 | 50 | 293 | 0.0 | 0.0 | 0.00 | 0.01 | 0.01 | 97 | 1021.0 |
| 20260905165010 | 50 | 293 | 0.0 | 0.0 | 0.00 | 0.01 | 0.01 | 97 | 1021.0 |
| 20260905164732 | 50 | 293 | 0.0 | 0.0 | 0.00 | 0.01 | 0.01 | 97 | 1021.1 |
| 20260905164005 | 50 | 293 | 0.0 | 0.0 | 0.01 | 0.01 | 0.01 | 97 | 1021.1 |
| 20260905163733 | 50 | 293 | 0.0 | 0.0 | 0.01 | 0.01 | 0.01 | 97 | 1021.0 |
| 20260905163006 | 49 | 293 | 0.0 | 0.0 | 0.01 | 0.01 | 0.01 | 97 | 1021.0 |
| 20260905162506 | 49 | 293 | 0.0 | 1.0 | 0.01 | 0.01 | 0.01 | 97 | 1020.8 |
| 20260905162007 | 49 | 293 | 0.0 | 2.0 | 0.01 | 0.01 | 0.01 | 97 | 1021.0 |
| 20260905161501 | 50 | 293 | 0.0 | 2.0 | 0.01 | 0.01 | 0.01 | 97 | 1020.8 |
| 20260905161001 | 50 | 293 | 0.0 | 1.0 | 0.01 | 0.01 | 0.01 | 98 | 1020.8 |
| 20260905160457 | 50 | 293 | 0.0 | 0.0 | 0.01 | 0.01 | 0.01 | 98 | 1020.8 |
| 20260905155954 | 49 | 293 | 0.0 | 0.0 | 0.01 | 0.01 | 0.01 | 98 | 1020.6 |
| 20260905155452 | 49 | 293 | 0.0 | 0.0 | 0.01 | 0.01 | 0.01 | 98 | 1020.6 |
| 20260905154951 | 49 | 293 | 0.0 | 0.0 | 0.01 | 0.01 | 0.01 | 98 | 1020.6 |
| 20260905154455 | 49 | 293 | 0.0 | 0.0 | 0.01 | 0.01 | 0.01 | 98 | 1020.6 |
| 20260905153947 | 49 | 293 | 0.0 | 0.0 | 0.00 | 0.00 | 0.00 | 98 | 1020.6 |
| 20260905153442 | 49 | 293 | 0.0 | 0.0 | 0.00 | 0.00 | 0.00 | 98 | 1020.6 |
| 20260905153203 | 49 | 293 | 0.0 | 0.0 | 0.00 | 0.00 | 0.00 | 98 | 1020.6 |
| 20260905152443 | 49 | 293 | 0.0 | 0.0 | 0.00 | 0.00 | 0.00 | 98 | 1020.7 |
| 20260905151946 | 49 | 293 | 0.0 | 0.0 | 0.00 | 0.00 | 0.00 | 97 | 1020.6 |
| 20260905151443 | 49 | 293 | 0.0 | 0.0 | 0.00 | 0.00 | 0.00 | 98 | 1020.7 |
| 20260905150938 | 49 | 293 | 0.0 | 0.0 | 0.00 | 0.01 | 0.00 | 98 | 1020.6 |
| 20260905150655 | 48 | 293 | 0.0 | 0.0 | 0.00 | 0.01 | 0.00 | 97 | 1020.6 |
| 20260905145933 | 48 | 293 | 0.0 | 0.0 | 0.00 | 0.01 | 0.00 | 97 | 1020.5 |
| 20260905145432 | 48 | 293 | 0.0 | 0.0 | 0.00 | 0.01 | 0.00 | 97 | 1020.5 |
| 20260905144929 | 48 | 293 | 0.0 | 0.0 | 0.00 | 0.02 | 0.00 | 97 | 1020.5 |
| 20260905144414 | 48 | 293 | 0.0 | 0.0 | 0.00 | 0.02 | 0.00 | 97 | 1020.5 |
| 20260905143914 | 48 | 293 | 0.0 | 0.0 | 0.00 | 0.02 | 0.00 | 97 | 1020.4 |
| 20260905143408 | 48 | 293 | 0.0 | 0.0 | 0.00 | 0.02 | 0.00 | 97 | 1020.4 |
| 20260905142909 | 48 | 293 | 0.0 | 0.0 | 0.00 | 0.02 | 0.00 | 97 | 1020.4 |
| 20260905142412 | 48 | 293 | 0.0 | 0.0 | 0.00 | 0.02 | 0.00 | 97 | 1020.4 |
| 20260905141907 | 48 | 293 | 0.0 | 0.0 | 0.00 | 0.02 | 0.00 | 97 | 1020.4 |
| 20260905141405 | 48 | 293 | 0.0 | 0.0 | 0.00 | 0.02 | 0.00 | 97 | 1020.3 |
| 20260905140905 | 48 | 293 | 0.0 | 0.0 | 0.00 | 0.02 | 0.00 | 97 | 1020.2 |
| 20260905140359 | 48 | 293 | 0.0 | 0.0 | 0.00 | 0.02 | 0.00 | 97 | 1019.9 |
| 20260905140128 | 48 | 293 | 0.0 | 0.0 | 0.00 | 0.03 | 0.00 | 97 | 1020.1 |
| 20260905135350 | 48 | 293 | 0.0 | 0.0 | 0.00 | 0.03 | 0.00 | 97 | 1020.1 |
| 20260905134850 | 48 | 293 | 0.0 | 0.0 | 0.00 | 0.03 | 0.00 | 97 | 1019.9 |
| 20260905134346 | 48 | 293 | 0.0 | 0.0 | 0.00 | 0.03 | 0.00 | 97 | 1019.9 |
| 20260905133848 | 48 | 293 | 0.0 | 0.0 | 0.00 | 0.03 | 0.00 | 97 | 1019.9 |
| 20260905133607 | 48 | 293 | 0.0 | 0.0 | 0.00 | 0.03 | 0.00 | 97 | 1020.1 |
| 20260905132846 | 48 | 293 | 0.0 | 0.0 | 0.00 | 0.03 | 0.00 | 97 | 1019.9 |
| 20260905132606 | 48 | 293 | 0.0 | 0.0 | 0.00 | 0.03 | 0.00 | 97 | 1019.9 |
| 20260905131841 | 48 | 293 | 0.0 | 0.0 | 0.00 | 0.03 | 0.00 | 97 | 1019.6 |
| 20260905131336 | 48 | 293 | 0.0 | 0.0 | 0.00 | 0.03 | 0.00 | 97 | 1019.5 |
| 20260905130832 | 48 | 293 | 0.0 | 0.0 | 0.00 | 0.03 | 0.00 | 97 | 1019.4 |
| 20260905130334 | 48 | 293 | 0.0 | 0.0 | 0.00 | 0.03 | 0.00 | 97 | 1019.2 |
| 20260905130058 | 48 | 293 | 0.0 | 0.0 | 0.00 | 0.03 | 0.00 | 97 | 1019.2 |
| 20260905125557 | 48 | 293 | 0.0 | 0.0 | 0.00 | 0.03 | 0.00 | 97 | 1019.2 |
| 20260905124832 | 48 | 293 | 0.0 | 0.0 | 0.00 | 0.03 | 0.00 | 97 | 1019.1 |
| 20260905124328 | 48 | 293 | 0.0 | 0.0 | 0.00 | 0.03 | 0.00 | 97 | 1019.1 |
| 20260905124054 | 48 | 293 | 0.0 | 0.0 | 0.00 | 0.03 | 0.00 | 97 | 1019.2 |
| 20260905123328 | 48 | 293 | 0.0 | 0.0 | 0.00 | 0.03 | 0.00 | 97 | 1019.2 |
| 20260905122829 | 48 | 293 | 0.0 | 0.0 | 0.00 | 0.03 | 0.00 | 97 | 1019.2 |
| 20260905122555 | 48 | 293 | 0.0 | 0.0 | 0.00 | 0.03 | 0.00 | 97 | 1019.3 |
| 20260905121818 | 48 | 293 | 0.0 | 0.0 | 0.00 | 0.03 | 0.00 | 97 | 1019.3 |
| 20260905121314 | 48 | 293 | 0.0 | 0.0 | 0.00 | 0.03 | 0.00 | 97 | 1019.3 |
| 20260905120809 | 48 | 293 | 0.0 | 0.0 | 0.00 | 0.03 | 0.00 | 97 | 1019.2 |
| 20260905120311 | 48 | 293 | 0.0 | 0.0 | 0.00 | 0.03 | 0.00 | 97 | 1019.1 |
| 20260905120032 | 48 | 293 | 0.0 | 0.0 | 0.00 | 0.03 | 0.00 | 97 | 1019.2 |
| 20260905115306 | 48 | 293 | 0.0 | 1.0 | 0.00 | 0.03 | 0.00 | 97 | 1019.4 |
| 20260905114805 | 48 | 293 | 0.0 | 1.0 | 0.00 | 0.03 | 0.00 | 97 | 1019.4 |
| 20260905114522 | 48 | 292 | 0.0 | 0.0 | 0.00 | 0.03 | 0.00 | 97 | 1019.2 |
| 20260905114020 | 48 | 292 | 0.0 | 0.0 | 0.00 | 0.03 | 0.00 | 97 | 1019.3 |
| 20260905113245 | 48 | 292 | 0.0 | 0.0 | 0.00 | 0.03 | 0.00 | 97 | 1019.3 |
| 20260905113005 | 48 | 292 | 0.0 | 4.0 | 0.00 | 0.03 | 0.00 | 97 | 1019.2 |
| 20260905112245 | 48 | 292 | 0.0 | 4.0 | 0.00 | 0.03 | 0.00 | 97 | 1019.2 |
| 20260905111745 | 47 | 289 | 0.0 | 0.0 | 0.00 | 0.03 | 0.00 | 97 | 1019.2 |
| 20260905111225 | 47 | 289 | 0.0 | 0.0 | 0.00 | 0.03 | 0.00 | 97 | 1019.1 |
| 20260905110950 | 47 | 289 | 0.0 | 0.0 | 0.00 | 0.03 | 0.00 | 97 | 1019.1 |
| 20260905110220 | 47 | 289 | 0.0 | 0.0 | 0.00 | 0.03 | 0.00 | 97 | 1018.8 |
| 20260905105721 | 47 | 289 | 0.0 | 0.0 | 0.00 | 0.03 | 0.00 | 97 | 1018.7 |
| 20260905105205 | 47 | 289 | 0.0 | 0.0 | 0.00 | 0.03 | 0.00 | 97 | 1018.6 |
| 20260905104656 | 47 | 289 | 0.0 | 0.0 | 0.00 | 0.03 | 0.00 | 97 | 1018.7 |
| 20260905104150 | 47 | 289 | 0.0 | 0.0 | 0.00 | 0.03 | 0.00 | 97 | 1018.4 |
| 20260905103631 | 47 | 289 | 0.0 | 0.0 | 0.00 | 0.03 | 0.00 | 97 | 1018.3 |
| 20260905103126 | 47 | 289 | 0.0 | 0.0 | 0.00 | 0.03 | 0.00 | 97 | 1018.4 |
| 20260905102854 | 47 | 289 | 0.0 | 0.0 | 0.00 | 0.03 | 0.00 | 97 | 1018.5 |
| 20260905102129 | 47 | 289 | 0.0 | 0.0 | 0.00 | 0.03 | 0.00 | 97 | 1018.4 |
| 20260905101603 | 47 | 289 | 0.0 | 0.0 | 0.00 | 0.03 | 0.00 | 97 | 1018.5 |
| 20260905101058 | 47 | 289 | 0.0 | 0.0 | 0.00 | 0.03 | 0.00 | 97 | 1018.2 |
| 20260905100551 | 47 | 289 | 0.0 | 0.0 | 0.00 | 0.03 | 0.00 | 97 | 1018.5 |
| 20260905100046 | 47 | 289 | 0.0 | 0.0 | 0.00 | 0.03 | 0.00 | 97 | 1018.4 |
| 20260905100022 | 47 | 289 | 0.0 | 0.0 | 0.00 | 0.03 | 0.00 | 97 | 1018.5 |
| 20260905095036 | 47 | 289 | 0.0 | 0.0 | 0.00 | 0.03 | 0.00 | 97 | 1018.6 |
| 20260905094531 | 47 | 289 | 0.0 | 0.0 | 0.00 | 0.03 | 0.00 | 97 | 1018.7 |
| 20260905094032 | 47 | 289 | 0.0 | 0.0 | 0.00 | 0.03 | 0.00 | 97 | 1018.5 |
| 20260905093527 | 47 | 289 | 0.0 | 0.0 | 0.00 | 0.03 | 0.00 | 97 | 1018.6 |
| 20260905093021 | 47 | 289 | 0.0 | 0.0 | 0.00 | 0.03 | 0.00 | 97 | 1018.5 |
| 20260905092522 | 47 | 289 | 0.0 | 0.0 | 0.00 | 0.03 | 0.00 | 97 | 1018.6 |
| 20260905092022 | 47 | 289 | 0.0 | 0.0 | 0.00 | 0.03 | 0.00 | 97 | 1018.7 |
| 20260905091523 | 47 | 289 | 0.0 | 0.0 | 0.00 | 0.03 | 0.00 | 97 | 1018.5 |
| 20260905091022 | 47 | 289 | 0.0 | 0.0 | 0.00 | 0.03 | 0.00 | 97 | 1018.3 |
| 20260905090518 | 47 | 289 | 0.0 | 0.0 | 0.00 | 0.03 | 0.00 | 97 | 1018.3 |
| 20260905090013 | 47 | 289 | 0.0 | 0.0 | 0.00 | 0.03 | 0.00 | 97 | 1018.5 |
| 20260905085511 | 47 | 289 | 0.0 | 0.0 | 0.00 | 0.03 | 0.00 | 97 | 1018.6 |
| 20260905084948 | 47 | 289 | 0.0 | 0.0 | 0.00 | 0.03 | 0.00 | 97 | 1018.7 |
| 20260905084712 | 47 | 289 | 0.0 | 0.0 | 0.00 | 0.03 | 0.00 | 97 | 1018.8 |
| 20260905083947 | 47 | 289 | 0.0 | 0.0 | 0.00 | 0.03 | 0.00 | 96 | 1018.7 |
| 20260905083716 | 47 | 289 | 0.0 | 0.0 | 0.00 | 0.03 | 0.00 | 96 | 1018.8 |
| 20260905082949 | 47 | 289 | 0.0 | 0.0 | 0.00 | 0.03 | 0.00 | 96 | 1018.7 |
| 20260905082444 | 47 | 289 | 0.0 | 0.0 | 0.00 | 0.03 | 0.00 | 96 | 1018.7 |
| 20260905081938 | 47 | 289 | 0.0 | 0.0 | 0.00 | 0.03 | 0.00 | 96 | 1018.6 |
| 20260905081928 | 47 | 289 | 0.0 | 0.0 | 0.00 | 0.03 | 0.00 | 96 | 1018.5 |
| 20260905080923 | 47 | 289 | 0.0 | 0.0 | 0.00 | 0.03 | 0.00 | 96 | 1018.6 |
| 20260905080419 | 47 | 289 | 0.0 | 0.0 | 0.00 | 0.03 | 0.00 | 96 | 1018.7 |
| 20260905075922 | 47 | 289 | 0.0 | 0.0 | 0.00 | 0.03 | 0.00 | 96 | 1018.8 |
| 20260905075419 | 47 | 289 | 0.0 | 0.0 | 0.00 | 0.03 | 0.00 | 96 | 1018.9 |
| 20260905074904 | 47 | 289 | 0.0 | 0.0 | 0.00 | 0.03 | 0.00 | 96 | 1018.9 |
| 20260905074404 | 47 | 289 | 0.0 | 0.0 | 0.00 | 0.03 | 0.00 | 96 | 1018.9 |
| 20260905073900 | 47 | 289 | 0.0 | 0.0 | 0.00 | 0.03 | 0.00 | 96 | 1018.8 |
| 20260905073357 | 47 | 289 | 0.0 | 0.0 | 0.00 | 0.03 | 0.00 | 96 | 1018.9 |
| 20260905072852 | 47 | 289 | 0.0 | 0.0 | 0.00 | 0.03 | 0.00 | 96 | 1019.2 |
| 20260905072350 | 47 | 289 | 0.0 | 0.0 | 0.00 | 0.03 | 0.00 | 95 | 1019.2 |
| 20260905072346 | 47 | 289 | 0.0 | 0.0 | 0.00 | 0.03 | 0.00 | 95 | 1019.3 |
| 20260905071348 | 47 | 289 | 0.0 | 0.0 | 0.00 | 0.03 | 0.00 | 95 | 1019.1 |
| 20260905070844 | 47 | 289 | 0.0 | 0.0 | 0.00 | 0.03 | 0.00 | 95 | 1018.8 |
| 20260905070333 | 47 | 289 | 0.0 | 0.0 | 0.00 | 0.03 | 0.00 | 95 | 1018.8 |
| 20260905065828 | 47 | 289 | 0.0 | 0.0 | 0.00 | 0.03 | 0.00 | 95 | 1018.7 |
| 20260905065315 | 47 | 289 | 0.0 | 0.0 | 0.00 | 0.03 | 0.00 | 95 | 1018.6 |
| 20260905064818 | 47 | 289 | 0.0 | 0.0 | 0.00 | 0.03 | 0.00 | 95 | 1018.3 |
| 20260905064310 | 47 | 289 | 0.0 | 0.0 | 0.00 | 0.03 | 0.00 | 95 | 1018.3 |
| 20260905063811 | 47 | 289 | 0.0 | 0.0 | 0.00 | 0.03 | 0.00 | 94 | 1018.3 |
| 20260905063311 | 47 | 289 | 0.0 | 0.0 | 0.00 | 0.03 | 0.00 | 95 | 1018.5 |
| 20260905063258 | 48 | 289 | 0.0 | 0.0 | 0.00 | 0.03 | 0.00 | 94 | 1018.5 |
| 20260905062312 | 48 | 289 | 0.0 | 0.0 | 0.00 | 0.03 | 0.00 | 95 | 1018.4 |
| 20260905061806 | 48 | 289 | 0.0 | 0.0 | 0.00 | 0.03 | 0.00 | 95 | 1018.3 |
| 20260905061301 | 48 | 289 | 0.0 | 0.0 | 0.00 | 0.03 | 0.00 | 95 | 1018.4 |
| 20260905060757 | 48 | 289 | 0.0 | 0.0 | 0.00 | 0.03 | 0.00 | 95 | 1018.5 |
| 20260905060256 | 48 | 289 | 0.0 | 0.0 | 0.00 | 0.03 | 0.00 | 95 | 1018.4 |
| 20260905055755 | 49 | 289 | 0.0 | 0.0 | 0.00 | 0.03 | 0.03 | 95 | 1018.5 |
| 20260905055247 | 49 | 289 | 0.0 | 0.0 | 0.00 | 0.03 | 0.03 | 95 | 1018.6 |
| 20260905054747 | 49 | 289 | 0.0 | 0.0 | 0.00 | 0.03 | 0.03 | 95 | 1018.6 |
| 20260905054243 | 49 | 289 | 0.0 | 0.0 | 0.00 | 0.03 | 0.03 | 95 | 1018.5 |
| 20260905053738 | 49 | 289 | 0.0 | 0.0 | 0.00 | 0.03 | 0.03 | 95 | 1018.5 |
| 20260905053238 | 49 | 289 | 0.0 | 0.0 | 0.00 | 0.03 | 0.03 | 95 | 1018.4 |
| 20260905052733 | 49 | 289 | 0.0 | 0.0 | 0.00 | 0.03 | 0.03 | 95 | 1018.5 |
| 20260905052454 | 49 | 289 | 0.0 | 0.0 | 0.00 | 0.03 | 0.03 | 95 | 1018.5 |
| 20260905051733 | 49 | 289 | 0.0 | 0.0 | 0.00 | 0.03 | 0.03 | 95 | 1018.3 |
| 20260905051236 | 49 | 289 | 0.0 | 0.0 | 0.00 | 0.03 | 0.03 | 95 | 1018.3 |
| 20260905050724 | 49 | 289 | 0.0 | 0.0 | 0.00 | 0.03 | 0.03 | 95 | 1018.3 |
| 20260905050218 | 49 | 289 | 0.0 | 0.0 | 0.00 | 0.03 | 0.03 | 95 | 1018.4 |
| 20260905045721 | 49 | 289 | 0.0 | 0.0 | 0.00 | 0.03 | 0.03 | 95 | 1018.4 |
| 20260905045214 | 49 | 289 | 0.0 | 0.0 | 0.00 | 0.03 | 0.03 | 95 | 1018.6 |
| 20260905044714 | 49 | 289 | 0.0 | 0.0 | 0.00 | 0.03 | 0.03 | 95 | 1018.7 |
| 20260905044208 | 49 | 289 | 0.0 | 0.0 | 0.00 | 0.03 | 0.03 | 95 | 1018.7 |
| 20260905043710 | 49 | 289 | 0.0 | 0.0 | 0.00 | 0.03 | 0.03 | 95 | 1018.7 |
| 20260905043159 | 49 | 289 | 0.0 | 0.0 | 0.00 | 0.03 | 0.03 | 94 | 1018.5 |
| 20260905042654 | 49 | 289 | 0.0 | 0.0 | 0.00 | 0.03 | 0.03 | 94 | 1018.7 |
| 20260905042154 | 49 | 289 | 0.0 | 0.0 | 0.00 | 0.03 | 0.03 | 94 | 1018.8 |
| 20260905041650 | 49 | 289 | 0.0 | 0.0 | 0.00 | 0.03 | 0.03 | 94 | 1018.6 |
| 20260905041149 | 49 | 289 | 0.0 | 0.0 | 0.00 | 0.03 | 0.03 | 94 | 1018.5 |
| 20260905040650 | 49 | 289 | 0.0 | 0.0 | 0.00 | 0.03 | 0.03 | 94 | 1018.5 |
| 20260905040152 | 49 | 289 | 0.0 | 0.0 | 0.00 | 0.03 | 0.03 | 94 | 1018.4 |
| 20260905035650 | 49 | 289 | 0.0 | 0.0 | 0.00 | 0.03 | 0.03 | 93 | 1018.3 |
| 20260905035632 | 49 | 289 | 0.0 | 0.0 | 0.00 | 0.03 | 0.03 | 93 | 1018.2 |
| 20260905034649 | 49 | 289 | 0.0 | 0.0 | 0.00 | 0.03 | 0.03 | 93 | 1018.3 |
| 20260905034130 | 50 | 289 | 0.0 | 0.0 | 0.00 | 0.03 | 0.03 | 93 | 1018.2 |
| 20260905033633 | 50 | 289 | 0.0 | 0.0 | 0.00 | 0.03 | 0.03 | 93 | 1018.3 |
| 20260905033126 | 50 | 289 | 0.0 | 0.0 | 0.00 | 0.03 | 0.03 | 93 | 1018.3 |
| 20260905032626 | 50 | 289 | 0.0 | 0.0 | 0.00 | 0.03 | 0.03 | 93 | 1018.1 |
| 20260905032129 | 50 | 289 | 0.0 | 0.0 | 0.00 | 0.03 | 0.03 | 93 | 1018.2 |
| 20260905031627 | 50 | 289 | 0.0 | 2.0 | 0.00 | 0.03 | 0.03 | 93 | 1018.1 |
| 20260905031349 | 50 | 289 | 0.0 | 2.0 | 0.00 | 0.03 | 0.03 | 93 | 1018.3 |
| 20260905030613 | 50 | 138 | 0.0 | 0.0 | 0.00 | 0.03 | 0.03 | 93 | 1018.3 |
| 20260905030112 | 50 | 138 | 0.0 | 2.0 | 0.00 | 0.03 | 0.03 | 93 | 1018.4 |
| 20260905025835 | 50 | 138 | 0.0 | 2.0 | 0.00 | 0.03 | 0.03 | 93 | 1018.4 |
| 20260905025343 | 50 | 138 | 0.0 | 1.0 | 0.00 | 0.03 | 0.03 | 92 | 1018.4 |
| 20260905024602 | 50 | 138 | 0.0 | 0.0 | 0.00 | 0.03 | 0.03 | 92 | 1018.3 |
| 20260905024326 | 51 | 138 | 0.0 | 0.0 | 0.00 | 0.03 | 0.03 | 92 | 1018.2 |
| 20260905023549 | 51 | 138 | 0.0 | 0.0 | 0.00 | 0.03 | 0.03 | 91 | 1018.1 |
| 20260905023048 | 51 | 138 | 0.0 | 2.0 | 0.00 | 0.03 | 0.03 | 91 | 1018.2 |
| 20260905022543 | 51 | 138 | 0.0 | 2.0 | 0.00 | 0.03 | 0.03 | 91 | 1017.9 |
| 20260905022037 | 51 | 139 | 0.0 | 0.0 | 0.00 | 0.03 | 0.03 | 90 | 1017.9 |
| 20260905021523 | 52 | 139 | 0.0 | 0.0 | 0.00 | 0.03 | 0.03 | 89 | 1017.9 |
| 20260905021023 | 52 | 139 | 0.0 | 0.0 | 0.00 | 0.03 | 0.03 | 89 | 1017.8 |
| 20260905020523 | 53 | 139 | 0.0 | 0.0 | 0.00 | 0.03 | 0.03 | 88 | 1017.8 |
| 20260905020022 | 53 | 139 | 0.0 | 0.0 | 0.00 | 0.03 | 0.03 | 88 | 1017.8 |
| 20260905015518 | 53 | 139 | 0.0 | 0.0 | 0.00 | 0.03 | 0.03 | 87 | 1017.6 |
| 20260905015021 | 54 | 139 | 0.0 | 0.0 | 0.00 | 0.03 | 0.03 | 87 | 1017.4 |
| 20260905014513 | 54 | 139 | 0.0 | 0.0 | 0.00 | 0.03 | 0.03 | 86 | 1017.4 |
| 20260905014008 | 55 | 139 | 0.0 | 0.0 | 0.00 | 0.03 | 0.03 | 86 | 1017.4 |
| 20260905013509 | 55 | 139 | 0.0 | 0.0 | 0.00 | 0.03 | 0.03 | 86 | 1017.4 |
| 20260905013459 | 56 | 139 | 0.0 | 0.0 | 0.00 | 0.03 | 0.03 | 86 | 1017.5 |
| 20260905012512 | 56 | 139 | 0.0 | 0.0 | 0.00 | 0.03 | 0.03 | 86 | 1017.5 |
| 20260905011959 | 56 | 139 | 0.0 | 0.0 | 0.00 | 0.03 | 0.03 | 86 | 1017.5 |
| 20260905011459 | 56 | 139 | 0.0 | 0.0 | 0.00 | 0.03 | 0.03 | 86 | 1017.6 |
| 20260905011000 | 57 | 139 | 0.0 | 0.0 | 0.00 | 0.03 | 0.03 | 86 | 1017.6 |
| 20260905010455 | 57 | 139 | 0.0 | 0.0 | 0.00 | 0.03 | 0.03 | 86 | 1017.5 |
| 20260905005950 | 57 | 139 | 0.0 | 0.0 | 0.00 | 0.03 | 0.03 | 86 | 1017.6 |
| 20260905005707 | 57 | 139 | 0.0 | 0.0 | 0.00 | 0.03 | 0.03 | 87 | 1017.6 |